sat.trackr.live / text

‹ back to catalog

ONEWEB-0311

NORAD 49097 · 2021-075Y

PAYLOAD ACTIVE UNKNOWN

§ Identity

Operator
Country
UK
Launch date
2021-08-21
Launch site
TYMSC
Launch vehicle
Mass (kg)
RCS (m²)

Purposes: comms

External: N2YO · Heavens-Above · Gunter

§ Orbital elements

Epoch: 2026-09-19T22:33:41.126112Z

Period
109.29 min
Inclination
87.9201°
Eccentricity
0.0002200
Mean motion
13.17649263 rev/d
Perigee alt
1,192.0 km
Apogee alt
1,195.4 km
Semi-major
7,571.8 km
B*
-2.0771e-4
RAAN
347.0474°
Arg perigee
111.1841°
Mean anomaly
248.9526°
Rev number
24,610

§ Raw data

ONEWEB-03111 49097U 21075Y   26262.94005933 -.00000068  00000+0 -20771-3 0  99902 49097  87.9201 347.0474 0002200 111.1841 248.9526 13.17649263246109

JSON: /api/v1/satellites/49097 · /tle

For live sub-satellite position, see the globe view (requires WebGL).

§ Visibility from observer

Set your observer location to see the next 7 days of passes ≥ 10°. The values pass through the URL so the page stays shareable.

No JS? Fill the form by hand. The geolocation button needs JavaScript.